Weather reports worldwide

Advertisment
Quimper, France (7201): temperature & dewpoint: 20.03.2019 08:00:00 - 26.03.2019 08:00:00 (CET)Quimper, France (7201): temperature 5cm: 20.03.2019 08:00:00 - 26.03.2019 08:00:00 (CET)Quimper, France (7201): temperature -20cm: 20.03.2019 08:00:00 - 26.03.2019 08:00:00 (CET)Quimper, France (7201): wind speed & gusts: 20.03.2019 08:00:00 - 26.03.2019 08:00:00 (CET)Quimper, France (7201): wind direction: 20.03.2019 08:00:00 - 26.03.2019 08:00:00 (CET)Quimper, France (7201): reduced air pressure: 20.03.2019 08:00:00 - 26.03.2019 08:00:00 (CET)Quimper, France (7201): visibility: 20.03.2019 08:00:00 - 26.03.2019 08:00:00 (CET)Quimper, France (7201): sunshine duration: 20.03.2019 08:00:00 - 26.03.2019 08:00:00 (CET)Quimper, France (7201): precipitation: 20.03.2019 08:00:00 - 26.03.2019 08:00:00 (CET)
Date & Time tt [°C] td [°C] tt 5cm [°C] tt -20cm [°C] ff [km/h] ff [kn] fx [km/h] fx [kn] dd ppp [hPa] vv [km] sd [min] rr [mm]
26.03.2019 08:00:00 3,8 0,7 1,2 10,0 9 5 17 9 ENE 1035,9 37 29 0,0
26.03.2019 07:00:00 2,7 -0,4 1,0 10,1 9 5 20 11 ENE 1035,4 41 0 0,0
26.03.2019 06:00:00 2,7 -0,4 0,5 10,2 12 7 17 9 NE 1035,3 52 0 0,0
26.03.2019 05:00:00 3,0 -0,8 -0,3 10,3 13 7 17 9 ENE 1035,2 42 0 0,0
26.03.2019 04:00:00 3,0 -0,6 0,3 10,4 10 5 16 8 NE 1035,2 45 0 0,0
26.03.2019 03:00:00 2,7 0,1 0,2 10,5 7 4 11 6 NE 1035,4 42 0 0,0
26.03.2019 02:00:00 3,3 0,7 1,3 10,5 9 5 13 7 NE 1035,5 42 0 0,0
26.03.2019 01:00:00 3,7 1,2 1,3 10,6 9 5 16 9 NNE 1035,5 40 0 0,0
26.03.2019 00:00:00 4,3 1,5 2,3 10,6 11 6 20 11 NNE 1035,4 41 0 0,0
25.03.2019 23:00:00 5,5 1,6 4,5 10,6 15 8 22 12 NE 1035,1 42 0 0,0
25.03.2019 22:00:00 6,2 1,5 4,9 10,6 15 8 24 13 NE 1034,7 47 0 0,0
25.03.2019 21:00:00 7,0 1,7 5,7 10,6 13 7 30 16 NE 1033,9 42 0 0,0
25.03.2019 20:00:00 8,4 1,8 7,1 10,5 15 8 31 17 NE 1033,2 45 12 0,0
25.03.2019 19:00:00 10,2 2,3 11,0 10,4 17 9 36 19 NE 1032,4 47 60 0,0
25.03.2019 18:00:00 11,6 2,3 12,8 10,3 19 10 36 19 NE 1032,0 56 56 0,0
25.03.2019 17:00:00 12,3 4,5 12,7 10,1 17 9 32 18 NE 1032,0 42 44 0,0
25.03.2019 16:00:00 12,9 4,6 13,5 10,1 17 9 36 20 NE 1031,9 50 43 0,0
25.03.2019 15:00:00 13,0 3,9 14,9 10,0 17 9 34 19 NNE 1032,3 20 56 0,0
25.03.2019 14:00:00 13,1 4,8 14,1 10,0 18 10 35 19 NNE 1032,7 60 56 0,0
25.03.2019 13:00:00 12,9 4,8 12,2 10,0 17 9 34 19 NNE 1033,2 20 39 0,0
25.03.2019 12:00:00 11,1 4,1 12,2 10,0 22 12 37 20 NNE 1033,8 37 18 0,0
25.03.2019 11:00:00 10,8 4,7 10,8 10,1 22 12 37 20 NNE 1034,0 19 30 0,0
25.03.2019 10:00:00 9,9 6,4 12,4 10,1 18 10 31 17 NE 1033,6 19 60 0,0
25.03.2019 09:00:00 8,0 6,1 8,5 10,3 9 5 17 9 N 1033,5 39 60 0,0
25.03.2019 08:00:00 5,8 4,6 2,9 10,3 9 5 20 11 N 1033,0 38 27 0,0
25.03.2019 07:00:00 4,1 3,2 3,0 10,4 9 5 18 10 N 1032,6 42 0 0,0
25.03.2019 06:00:00 4,5 3,3 2,4 10,5 11 6 16 9 N 1032,3 50 0 0,0
25.03.2019 05:00:00 4,1 2,9 2,4 10,6 7 4 14 8 NW 1032,3 53 0 0,0
25.03.2019 04:00:00 4,4 3,1 2,3 10,7 9 5 13 7 N 1032,5 54 0 0,0
25.03.2019 03:00:00 4,9 3,1 2,6 10,8 6 3 11 6 N 1032,7 53 0 0,0
25.03.2019 02:00:00 5,3 3,1 3,6 10,8 5 3 18 10 N 1033,1 34 0 0,0
25.03.2019 01:00:00 5,9 4,2 3,6 10,8 10 5 16 9 N 1033,3 32 0 0,0
25.03.2019 00:00:00 6,1 4,6 4,1 10,9 8 4 13 7 NNW 1033,1 16 0 0,0
24.03.2019 23:00:00 6,6 5,2 4,3 10,9 8 5 12 7 N 1033,2 15 0 0,0
24.03.2019 22:00:00 7,2 5,5 5,9 10,9 8 4 19 11 NNE 1033,2 15 0 0,0
24.03.2019 21:00:00 7,7 5,5 6,3 10,9 9 5 23 13 N 1032,6 20 0 0,0
24.03.2019 20:00:00 9,4 5,2 8,5 10,8 14 8 27 15 NNE 1032,2 40 11 0,0
24.03.2019 19:00:00 11,2 4,4 11,6 10,8 19 11 32 17 NNE 1031,6 52 56 0,0
24.03.2019 18:00:00 12,6 4,3 12,5 10,7 19 11 32 18 NNE 1031,0 51 38 0,0
24.03.2019 17:00:00 13,4 4,0 13,0 10,6 16 9 36 20 NE 1030,7 20 23 0,0
24.03.2019 16:00:00 13,2 5,4 13,7 10,6 17 9 31 17 NNE 1031,0 20 8 0,0
24.03.2019 15:00:00 12,8 6,4 13,4 10,6 14 7 29 16 NE 1030,9 32 5 0,0
24.03.2019 14:00:00 13,0 6,8 13,2 10,5 13 7 29 16 NE 1031,2 18 19 0,0
24.03.2019 13:00:00 12,2 6,7 14,0 10,5 17 9 32 17 NNE 1031,5 17 24 0,0
24.03.2019 12:00:00 11,6 6,5 11,5 10,5 11 6 27 14 ENE 1031,6 14 0 0,0
24.03.2019 11:00:00 11,4 6,5 13,3 10,5 16 9 29 16 NE 1031,7 10 45 0,0
24.03.2019 10:00:00 10,0 7,4 11,5 10,6 15 8 22 12 NE 1031,8 6 60 0,0
24.03.2019 09:00:00 7,7 6,5 6,9 10,7 14 8 21 12 NNE 1031,1 4,9 60 0,0
24.03.2019 08:00:00 5,7 5,3 4,5 10,7 9 5 14 8 NNE 1030,4 3,2 25 0,0
24.03.2019 07:00:00 6,1 5,4 5,1 10,7 10 5 19 11 NNE 1029,9 3,9 0 0,0
24.03.2019 06:00:00 7,5 6,3 6,8 10,7 10 5 22 12 NE 1029,6 6 0 0,0
24.03.2019 05:00:00 8,1 6,6 7,7 10,8 12 7 18 10 NNE 1029,5 7 0 0,0
24.03.2019 04:00:00 8,4 6,5 7,7 10,8 9 5 19 10 NE 1029,3 8 0 0,0
24.03.2019 03:00:00 8,2 6,7 7,6 10,9 11 6 18 10 NE 1029,4 8 0 0,0
24.03.2019 02:00:00 8,0 6,5 7,5 10,9 11 6 18 10 NNE 1029,3 8 0 0,0
24.03.2019 01:00:00 8,1 6,4 7,0 10,9 10 6 16 9 NNE 1029,4 11 0 0,0
24.03.2019 00:00:00 8,2 6,2 7,4 10,9 8 5 19 10 NE 1029,4 13 0 0,0
23.03.2019 23:00:00 8,7 6,3 7,5 10,9 13 7 20 11 NNE 1029,6 16 0 0,0
23.03.2019 22:00:00 10,0 6,9 8,9 10,9 12 6 23 12 NNE 1029,5 15 0 0,0
23.03.2019 21:00:00 10,9 6,6 9,6 10,8 11 6 21 11 N 1029,1 15 0 0,0
23.03.2019 20:00:00 11,1 7,4 10,1 10,7 10 5 17 9 N 1028,8 12 10 0,0
23.03.2019 19:00:00 13,3 6,9 12,8 10,6 8 4 11 6 WNW 1028,2 14 60 0,0
23.03.2019 18:00:00 15,4 6,1 18,1 10,4 9 5 19 10 S 1027,9 14 60 0,0
23.03.2019 17:00:00 16,1 7,6 19,2 10,3 13 7 20 11 S 1027,9 13 60 0,0
23.03.2019 16:00:00 16,5 5,4 19,8 10,1 13 7 25 14 S 1028,2 14 60 0,0
23.03.2019 15:00:00 16,8 6,6 19,1 10,1 12 6 27 15 S 1028,4 19 60 0,0
23.03.2019 14:00:00 16,3 6,7 17,6 10,0 13 7 26 14 ESE 1028,8 16 57 0,0
23.03.2019 13:00:00 16,0 5,6 16,2 10,0 16 9 24 13 SE 1029,2 18 53 0,0
23.03.2019 12:00:00 15,2 7,5 15,7 10,0 14 7 23 13 ESE 1029,6 13 60 0,0
23.03.2019 11:00:00 13,4 8,0 14,0 10,1 15 8 24 13 E 1029,8 13 60 0,0
23.03.2019 10:00:00 10,5 7,6 11,5 10,2 13 7 19 11 ENE 1030,1 13 60 0,0
23.03.2019 09:00:00 8,6 6,4 6,5 10,3 11 6 18 10 ENE 1030,1 12 60 0,0
23.03.2019 08:00:00 6,5 5,4 3,3 10,4 12 7 16 9 NNE 1030,0 11 23 0,0
23.03.2019 07:00:00 5,7 4,8 2,1 10,5 9 5 17 9 NNE 1029,7 12 0 0,0
23.03.2019 06:00:00 5,7 5,0 2,1 10,6 8 4 10 5 NNE 1029,5 11 0 0,0
23.03.2019 05:00:00 6,3 5,6 2,3 10,6 9 5 11 6 NNE 1029,4 12 0 0,0
23.03.2019 04:00:00 6,7 5,6 2,9 10,7 5 3 12 7 NE 1029,4 13 0 0,0
23.03.2019 03:00:00 6,9 5,7 3,6 10,7 9 5 13 7 NNE 1029,4 15 0 0,0
23.03.2019 02:00:00 7,6 6,2 3,6 10,8 7 4 13 7 NE 1029,6 17 0 0,0
23.03.2019 01:00:00 7,9 6,5 4,4 10,8 9 5 13 7 NNE 1029,4 17 0 0,0
23.03.2019 00:00:00 7,8 6,6 4,5 10,8 9 5 15 8 NNE 1029,8 11 0 0,0
22.03.2019 23:00:00 8,1 7,5 5,4 10,8 9 5 13 7 N 1029,8 7 0 0,0
22.03.2019 22:00:00 8,7 8,2 7,1 10,7 10 5 18 10 N 1029,7 3,9 0 0,0
22.03.2019 21:00:00 9,3 8,5 8,4 10,6 13 7 22 12 N 1029,3 4,2 0 0,0
22.03.2019 20:00:00 10,3 7,9 8,6 10,5 14 7 19 10 NNW 1028,8 10 8 0,0
22.03.2019 19:00:00 13,4 6,7 13,5 10,4 8 4 13 7 W 1028,1 18 60 0,0
22.03.2019 18:00:00 15,1 7,9 16,5 10,2 8 4 18 10 WSW 1027,8 16 54 0,0
22.03.2019 17:00:00 15,2 8,0 16,1 10,0 8 4 16 9 SW 1028,0 18 38 0,0
22.03.2019 16:00:00 16,4 7,6 17,6 9,9 8 5 19 10 S 1028,1 17 56 0,0
22.03.2019 15:00:00 16,6 8,0 19,0 9,8 8 4 18 10 S 1028,2 19 60 0,0
22.03.2019 14:00:00 16,4 7,9 18,2 9,7 7 4 20 11 SSE 1028,5 8 48 0,0
22.03.2019 13:00:00 15,8 9,2 17,9 9,7 6 3 14 8 SSW 1028,8 14 43 0,0
22.03.2019 12:00:00 15,0 8,7 16,4 9,7 6 3 10 5 S 1029,2 14 60 0,0
22.03.2019 11:00:00 13,1 8,6 14,2 9,8 6 3 12 7 SSE 1029,6 13 60 0,0
22.03.2019 10:00:00 10,4 8,2 12,2 9,8 5 3 10 6 E 1029,4 11 60 0,0
22.03.2019 09:00:00 8,2 7,3 5,4 9,9 5 3 9 5 NE 1029,5 8 60 0,0
22.03.2019 08:00:00 4,7 4,4 1,4 10,0 7 4 9 5 NE 1029,3 5 21 0,0
22.03.2019 07:00:00 5,4 5,1 1,6 10,0 7 4 9 5 NE 1028,9 7 0 0,0
22.03.2019 06:00:00 5,7 5,4 2,0 10,1 8 4 11 6 NE 1029,0 9 0 0,0
22.03.2019 05:00:00 5,8 5,4 2,8 10,2 8 5 10 6 NNE 1029,0 11 0 0,0
22.03.2019 04:00:00 5,8 5,1 2,6 10,2 7 4 9 5 N 1029,3 17 0 0,0
22.03.2019 03:00:00 6,5 5,4 4,2 10,2 5 3 11 6 E 1029,6 24 0 0,0
22.03.2019 02:00:00 6,8 5,3 4,7 10,2 8 4 12 7 E 1030,0 33 0 0,0
22.03.2019 01:00:00 8,1 6,2 5,4 10,2 7 4 11 6 ENE 1030,9 43 0 0,0
22.03.2019 00:00:00 8,5 6,1 7,0 10,2 6 3 11 6 E 1031,3 51 0 0,0
21.03.2019 23:00:00 10,1 7,0 9,1 10,2 7 4 19 11 ESE 1031,6 53 0 0,0
21.03.2019 22:00:00 10,9 7,6 10,4 10,1 6 4 15 8 E 1031,5 47 0 0,0
21.03.2019 21:00:00 11,1 7,8 10,7 10,1 7 4 12 7 NE 1031,4 47 0 0,0
21.03.2019 20:00:00 11,4 8,1 10,8 10,0 7 4 15 8 NE 1031,4 45 0 0,0
21.03.2019 19:00:00 11,8 7,7 11,6 10,0 6 4 13 7 NNE 1031,5 58 0 0,0
21.03.2019 18:00:00 12,2 7,3 12,4 9,9 5 3 14 8 NE 1031,7 60 0 0,0
21.03.2019 17:00:00 12,4 8,1 12,9 9,9 9 5 18 10 NE 1032,0 58 0 0,0
21.03.2019 16:00:00 12,7 7,8 13,6 9,8 5 3 12 7 NNE 1032,4 57 0 0,0
21.03.2019 15:00:00 12,7 7,8 13,3 9,7 9 5 13 7 ENE 1033,1 59 0 0,0
21.03.2019 14:00:00 12,7 7,6 14,1 9,7 6 3 11 6 NE 1034,0 59 0 0,0
21.03.2019 13:00:00 12,6 8,9 13,3 9,7 8 4 13 7 NE 1034,6 55 0 0,0
21.03.2019 12:00:00 11,9 9,3 12,4 9,7 9 5 12 6 NE 1034,8 46 0 0,0
21.03.2019 11:00:00 11,0 9,4 11,2 9,6 6 3 12 6 NNE 1035,0 20 0 0,0
21.03.2019 10:00:00 10,5 9,6 10,1 9,7 8 4 11 6 NE 1035,0 18 0 0,0
21.03.2019 09:00:00 9,7 8,9 9,0 9,7 5 3 9 5 NNE 1035,0 30 0 0,0
21.03.2019 08:00:00 9,3 8,4 8,8 9,7 4 2 11 6 NNE 1034,7 19 0 0,0
21.03.2019 07:00:00 9,2 8,4 8,8 9,6 5 3 10 5 NE 1034,4 41 0 0,0
21.03.2019 06:00:00 9,3 8,5 8,9 9,7 6 4 11 6 NE 1034,1 36 0 0,0
21.03.2019 05:00:00 9,4 8,3 8,9 9,6 0 0 13 7 N 1034,1 52 0 0,0
21.03.2019 04:00:00 9,6 8,4 8,9 9,7 10 5 13 7 NNW 1034,3 60 0 0,0
21.03.2019 03:00:00 9,4 8,8 8,8 9,6 4 2 8 4 N 1034,8 45 0 0,0
21.03.2019 02:00:00 9,5 8,9 9,1 9,6 6 3 8 5 NNE 1035,1 35 0 0,0
21.03.2019 01:00:00 9,6 9,0 9,2 9,6 5 3 13 7 NNE 1035,4 38 0 0,0
21.03.2019 00:00:00 9,6 9,1 9,3 9,6 7 4 12 7 N 1035,5 19 0 0,0
20.03.2019 23:00:00 9,7 9,4 9,1 9,6 5 3 7 4 N 1035,6 14 0 0,0
20.03.2019 22:00:00 9,7 9,4 9,3 9,5 2 1 10 6 N 1035,6 20 0 0,0
20.03.2019 21:00:00 9,8 9,5 9,4 9,5 7 4 10 6 W 1035,4 20 0 0,0
20.03.2019 20:00:00 9,9 9,6 9,5 9,5 8 4 11 6 W 1035,1 16 0 0,0
20.03.2019 19:00:00 9,9 9,4 9,6 9,4 9 5 14 8 W 1035,0 9 0 0,0
20.03.2019 18:00:00 10,2 9,6 9,9 9,4 7 4 10 5 WSW 1034,8 6 0 0,0
20.03.2019 17:00:00 10,6 10,0 10,4 9,3 7 4 10 5 WSW 1034,6 6 0 0,0
20.03.2019 16:00:00 10,6 9,8 10,5 9,2 5 3 9 5 SSW 1034,9 5 0 0,0
20.03.2019 15:00:00 10,6 9,7 10,8 9,2 4 2 12 6 SSW 1035,2 7 0 0,0
20.03.2019 14:00:00 10,7 9,6 10,7 9,2 10 5 14 8 S 1035,5 14 0 0,0
20.03.2019 13:00:00 10,5 9,3 10,6 9,1 5 3 9 5 SSW 1035,6 51 0 0,0
20.03.2019 12:00:00 10,5 9,1 10,5 9,2 5 3 11 6 S 1035,6 19 8 0,0
20.03.2019 11:00:00 10,1 9,8 10,6 9,1 5 3 11 6 S 1035,5 35 0 0,0
20.03.2019 10:00:00 9,7 9,7 8,2 9,2 4 2 8 4 SSW 1035,5 2,0 9 0,0
20.03.2019 09:00:00 7,3 7,3 6,2 9,2 0 0 0 0 N 1035,3 1,1 0 0,0
20.03.2019 08:00:00 5,9 5,9 5,5 9,3 0 0 0 0 N 1034,6 1,6 0 0,0

tt = temperature
td = dewpoint
tt 5cm = temperature 5cm
tt -20cm = temperature -20cm
ff = wind speed
fx = gusts
dd = wind direction
ppp = reduced air pressure
vv = visibility
sd = sunshine duration
rr = precipitation

Next stations